Weather History for KRKS - March, 2014

Change the Weather History Date:

Monday, March 3, 2014

  Actual Average Record
Temperature  
Mean Temperature 41 °F 29 °F  
Max Temperature 50 °F 39 °F 59 °F (2009)
Min Temperature 32 °F 20 °F -4 °F (1969)
Degree Days  
Heating Degree Days 24 36  
Month to date heating degree days 94 109  
Since 1 July heating degree days 5546 5961  
Cooling Degree Days 0 0  
Month to date cooling degree days 0 0  
Year to date cooling degree days 0 0  
Moisture  
Dew Point 25 °F    
Average Humidity 57    
Maximum Humidity 75    
Minimum Humidity 39    
Precipitation  
Precipitation 0.00 in 0.02 in 0.26 in (1985)
Month to date precipitation 0.01 0.05  
Year to date precipitation 0.16 0.98  
Sea Level Pressure  
Sea Level Pressure 29.98 in    
Wind  
Wind Speed 19 mph (WSW)    
Max Wind Speed 40 mph    
Max Gust Speed 49 mph    
Visibility 10 miles    
Events      
T = Trace of Precipitation, MM = Missing Value Source: NWS Daily Summary

Daily Weather History Graph

Daily Weather History Graph

Search for Another Location

Airport or City:

Trip Planner

Search our weather history database for the weather conditions in past years. The results will help you decide how hot, cold, wet, or windy it might be!

Date:

Astronomy

Mar. 03, 2014 Rise Set
Actual Time 6:47 AM MST 6:09 PM MST
Civil Twilight 6:19 AM MST 6:37 PM MST
Nautical Twilight 5:47 AM MST 7:09 PM MST
Astronomical Twilight 5:15 AM MST 7:41 PM MST
Moon 7:55 AM MST (3/3) 9:18 PM MST (3/3)
Length of Visible Light 12h 17m
Length of Day
11h 21m
Waxing Crescent, 8% of the Moon is Illuminated
Mar 3
Waxing Crescent
Mar 8
First Quarter
Mar 16
Full
Mar 23
Last Quarter
Mar 30
New

Hourly Weather History & Observations

Time (MST) Temp. Windchill Dew Point Humidity Pressure Visibility Wind Dir Wind Speed Gust Speed Precip Events Conditions
12:54 AM 33.1 °F 24.9 °F 24.1 °F 70% 29.98 in 10.0 mi WSW 10.4 mph - N/A   Clear
1:54 AM 35.1 °F 26.9 °F 24.1 °F 64% 29.99 in 10.0 mi WSW 11.5 mph - N/A   Scattered Clouds
2:54 AM 34.0 °F 25.5 °F 24.1 °F 67% 29.98 in 10.0 mi SW 11.5 mph - N/A   Mostly Cloudy
3:54 AM 34.0 °F 24.2 °F 25.0 °F 70% 29.97 in 10.0 mi SW 15.0 mph - N/A   Mostly Cloudy
4:54 AM 32.0 °F 21.6 °F 25.0 °F 75% 29.98 in 10.0 mi SW 15.0 mph - N/A   Partly Cloudy
5:54 AM 34.0 °F 20.5 °F 26.1 °F 73% 29.98 in 10.0 mi West 28.8 mph 36.8 mph N/A   Clear
6:54 AM 34.0 °F 21.3 °F 27.0 °F 75% 30.01 in 10.0 mi West 25.3 mph 35.7 mph N/A   Clear
7:54 AM 36.0 °F 24.2 °F 28.0 °F 73% 30.03 in 10.0 mi West 24.2 mph 36.8 mph N/A   Clear
8:54 AM 39.0 °F 27.2 °F 28.9 °F 67% 30.03 in 10.0 mi West 29.9 mph 36.8 mph N/A   Clear
9:54 AM 42.1 °F 30.8 °F 28.0 °F 58% 30.01 in 10.0 mi West 33.4 mph 41.4 mph N/A   Clear
10:54 AM 45.0 °F 35.2 °F 26.1 °F 48% 29.99 in 10.0 mi West 29.9 mph 44.9 mph N/A   Clear
11:54 AM 46.9 °F - 24.1 °F 41% 29.96 in 10.0 mi West 29.9 mph 36.8 mph N/A   Clear
12:54 PM 48.0 °F - 24.1 °F 39% 29.97 in 10.0 mi West 24.2 mph 31.1 mph N/A   Partly Cloudy
1:54 PM 46.9 °F - 24.1 °F 41% 29.97 in 10.0 mi West 21.9 mph 27.6 mph N/A   Mostly Cloudy
2:54 PM 46.0 °F 36.9 °F 24.1 °F 42% 29.97 in 10.0 mi West 28.8 mph 35.7 mph N/A   Clear
3:54 PM 46.0 °F 37.4 °F 24.1 °F 42% 29.96 in 10.0 mi West 25.3 mph 33.4 mph N/A   Partly Cloudy
4:54 PM 44.1 °F 37.1 °F 21.9 °F 42% 29.98 in 10.0 mi West 15.0 mph - N/A   Partly Cloudy
5:54 PM 41.0 °F 35.2 °F 21.9 °F 47% 29.99 in 10.0 mi West 9.2 mph - N/A   Overcast
6:54 PM 39.9 °F 33.9 °F 24.1 °F 53% 30.00 in 10.0 mi WNW 9.2 mph - N/A   Overcast
7:54 PM 39.0 °F 32.8 °F 25.0 °F 57% 29.99 in 10.0 mi West 9.2 mph - N/A   Overcast
8:54 PM 39.0 °F 32.3 °F 25.0 °F 57% 29.98 in 10.0 mi WSW 10.4 mph - N/A   Overcast
9:54 PM 39.0 °F 32.3 °F 26.1 °F 60% 29.96 in 10.0 mi SW 10.4 mph - N/A   Overcast
10:54 PM 39.0 °F 31.8 °F 26.1 °F 60% 29.93 in 10.0 mi WSW 11.5 mph - N/A   Overcast
11:54 PM 37.9 °F 30.5 °F 26.1 °F 62% 29.92 in 10.0 mi West 11.5 mph - N/A   Overcast